owner,sensor,date,latitude,longitude,vertical_datum,sea_water_temperature,qcFlag
Chevron,ioos:station:wmo:42372:2,2023-09-01T00:00:00Z,27.7790,-90.5190,10.6,30.5,11111222
Chevron,ioos:station:wmo:42372:2,2023-09-01T00:10:00Z,27.7790,-90.5190,10.6,30.5,11111222
Chevron,ioos:station:wmo:42372:2,2023-09-01T00:20:00Z,27.7790,-90.5190,10.5,30.5,11111222
Chevron,ioos:station:wmo:42372:2,2023-09-01T00:30:00Z,27.7790,-90.5190,10.4,30.5,11111222
Chevron,ioos:station:wmo:42372:2,2023-09-01T00:40:00Z,27.7790,-90.5190,10.4,30.5,11111222
Chevron,ioos:station:wmo:42372:2,2023-09-01T00:50:00Z,27.7790,-90.5190,10.5,30.5,11111222
Chevron,ioos:station:wmo:42372:2,2023-09-01T01:00:00Z,27.7790,-90.5190,10.5,30.5,11111222
Chevron,ioos:station:wmo:42372:2,2023-09-01T01:10:00Z,27.7790,-90.5190,10.6,30.4,11111222
Chevron,ioos:station:wmo:42372:2,2023-09-01T01:20:00Z,27.7790,-90.5190,10.4,30.5,11111222
Chevron,ioos:station:wmo:42372:2,2023-09-01T01:30:00Z,27.7790,-90.5190,10.5,30.5,11111222
Chevron,ioos:station:wmo:42372:2,2023-09-01T01:40:00Z,27.7790,-90.5190,10.5,30.5,11111222
Chevron,ioos:station:wmo:42372:2,2023-09-01T01:50:00Z,27.7790,-90.5190,10.6,30.5,11111222
Chevron,ioos:station:wmo:42372:2,2023-09-01T02:00:00Z,27.7790,-90.5190,10.5,30.5,11111222
Chevron,ioos:station:wmo:42372:2,2023-09-01T02:10:00Z,27.7790,-90.5190,10.5,30.5,11111222
Chevron,ioos:station:wmo:42372:2,2023-09-01T02:20:00Z,27.7790,-90.5190,10.6,30.5,11111222
Chevron,ioos:station:wmo:42372:2,2023-09-01T02:30:00Z,27.7790,-90.5190,10.6,30.4,11111222
Chevron,ioos:station:wmo:42372:2,2023-09-01T02:40:00Z,27.7790,-90.5190,10.6,30.5,11111222
Chevron,ioos:station:wmo:42372:2,2023-09-01T02:50:00Z,27.7790,-90.5190,10.6,30.4,11111222
Chevron,ioos:station:wmo:42372:2,2023-09-01T03:00:00Z,27.7790,-90.5190,10.6,30.4,11111222
Chevron,ioos:station:wmo:42372:2,2023-09-01T03:10:00Z,27.7790,-90.5190,10.7,30.4,11111222
Chevron,ioos:station:wmo:42372:2,2023-09-01T03:20:00Z,27.7790,-90.5190,10.7,30.4,11111222
Chevron,ioos:station:wmo:42372:2,2023-09-01T03:30:00Z,27.7790,-90.5190,10.6,30.4,11111222
Chevron,ioos:station:wmo:42372:2,2023-09-01T03:40:00Z,27.7790,-90.5190,10.6,30.4,11111222
Chevron,ioos:station:wmo:42372:2,2023-09-01T03:50:00Z,27.7790,-90.5190,10.6,30.4,11111222
Chevron,ioos:station:wmo:42372:2,2023-09-01T04:00:00Z,27.7790,-90.5190,10.8,30.4,11111222
Chevron,ioos:station:wmo:42372:2,2023-09-01T04:10:00Z,27.7790,-90.5190,10.6,30.4,11111222
Chevron,ioos:station:wmo:42372:2,2023-09-01T04:20:00Z,27.7790,-90.5190,10.6,30.4,11111222
Chevron,ioos:station:wmo:42372:2,2023-09-01T04:30:00Z,27.7790,-90.5190,10.7,30.4,11111222
Chevron,ioos:station:wmo:42372:2,2023-09-01T04:40:00Z,27.7790,-90.5190,10.7,30.4,11111222
Chevron,ioos:station:wmo:42372:2,2023-09-01T04:50:00Z,27.7790,-90.5190,10.7,30.4,11111222
Chevron,ioos:station:wmo:42372:2,2023-09-01T05:00:00Z,27.7790,-90.5190,10.6,30.4,11111222
Chevron,ioos:station:wmo:42372:2,2023-09-01T05:10:00Z,27.7790,-90.5190,10.7,30.3,11111222
Chevron,ioos:station:wmo:42372:2,2023-09-01T05:20:00Z,27.7790,-90.5190,10.8,30.3,11111222
Chevron,ioos:station:wmo:42372:2,2023-09-01T05:30:00Z,27.7790,-90.5190,10.7,30.4,11111222
Chevron,ioos:station:wmo:42372:2,2023-09-01T05:40:00Z,27.7790,-90.5190,10.8,30.4,11111222
Chevron,ioos:station:wmo:42372:2,2023-09-01T05:50:00Z,27.7790,-90.5190,10.6,30.4,11111222
Chevron,ioos:station:wmo:42372:2,2023-09-01T06:00:00Z,27.7790,-90.5190,10.7,30.4,11111222
Chevron,ioos:station:wmo:42372:2,2023-09-01T06:10:00Z,27.7790,-90.5190,10.7,30.4,11111222
Chevron,ioos:station:wmo:42372:2,2023-09-01T06:20:00Z,27.7790,-90.5190,10.6,30.5,11111222
Chevron,ioos:station:wmo:42372:2,2023-09-01T06:30:00Z,27.7790,-90.5190,10.7,30.5,11111222
Chevron,ioos:station:wmo:42372:2,2023-09-01T06:40:00Z,27.7790,-90.5190,10.6,30.4,11111222
Chevron,ioos:station:wmo:42372:2,2023-09-01T06:50:00Z,27.7790,-90.5190,10.7,30.4,11111222
Chevron,ioos:station:wmo:42372:2,2023-09-01T07:00:00Z,27.7790,-90.5190,10.7,30.4,11111222
Chevron,ioos:station:wmo:42372:2,2023-09-01T07:10:00Z,27.7790,-90.5190,10.6,30.5,11111222
Chevron,ioos:station:wmo:42372:2,2023-09-01T07:20:00Z,27.7790,-90.5190,10.6,30.4,11111222
Chevron,ioos:station:wmo:42372:2,2023-09-01T07:30:00Z,27.7790,-90.5190,10.6,30.5,11111222
Chevron,ioos:station:wmo:42372:2,2023-09-01T07:40:00Z,27.7790,-90.5190,10.6,30.5,11111222
Chevron,ioos:station:wmo:42372:2,2023-09-01T07:50:00Z,27.7790,-90.5190,10.5,30.5,11111222
Chevron,ioos:station:wmo:42372:2,2023-09-01T08:00:00Z,27.7790,-90.5190,10.5,30.5,11111222
Chevron,ioos:station:wmo:42372:2,2023-09-01T08:10:00Z,27.7790,-90.5190,10.4,30.6,11111222
Chevron,ioos:station:wmo:42372:2,2023-09-01T08:20:00Z,27.7790,-90.5190,10.5,30.5,11111222
Chevron,ioos:station:wmo:42372:2,2023-09-01T08:30:00Z,27.7790,-90.5190,10.5,30.5,11111222
Chevron,ioos:station:wmo:42372:2,2023-09-01T08:40:00Z,27.7790,-90.5190,10.4,30.5,11111222
Chevron,ioos:station:wmo:42372:2,2023-09-01T08:50:00Z,27.7790,-90.5190,10.5,30.5,11111222
Chevron,ioos:station:wmo:42372:2,2023-09-01T09:00:00Z,27.7790,-90.5190,10.5,30.5,11111222
Chevron,ioos:station:wmo:42372:2,2023-09-01T09:10:00Z,27.7790,-90.5190,10.6,30.5,11111222
Chevron,ioos:station:wmo:42372:2,2023-09-01T09:20:00Z,27.7790,-90.5190,10.5,30.4,11111222
Chevron,ioos:station:wmo:42372:2,2023-09-01T09:30:00Z,27.7790,-90.5190,10.5,30.4,11111222
Chevron,ioos:station:wmo:42372:2,2023-09-01T09:40:00Z,27.7790,-90.5190,10.6,30.4,11111222
Chevron,ioos:station:wmo:42372:2,2023-09-01T09:50:00Z,27.7790,-90.5190,10.6,30.4,11111222
Chevron,ioos:station:wmo:42372:2,2023-09-01T10:00:00Z,27.7790,-90.5190,10.5,30.4,11111222
Chevron,ioos:station:wmo:42372:2,2023-09-01T10:10:00Z,27.7790,-90.5190,10.6,30.4,11111222
Chevron,ioos:station:wmo:42372:2,2023-09-01T10:20:00Z,27.7790,-90.5190,10.6,30.4,11111222
Chevron,ioos:station:wmo:42372:2,2023-09-01T10:30:00Z,27.7790,-90.5190,10.6,30.4,11111222
Chevron,ioos:station:wmo:42372:2,2023-09-01T10:40:00Z,27.7790,-90.5190,10.4,30.5,11111222
Chevron,ioos:station:wmo:42372:2,2023-09-01T10:50:00Z,27.7790,-90.5190,10.7,30.4,11111222
Chevron,ioos:station:wmo:42372:2,2023-09-01T11:00:00Z,27.7790,-90.5190,10.5,30.4,11111222
Chevron,ioos:station:wmo:42372:2,2023-09-01T11:10:00Z,27.7790,-90.5190,10.6,30.4,11111222
Chevron,ioos:station:wmo:42372:2,2023-09-01T11:20:00Z,27.7790,-90.5190,10.5,30.4,11111222
Chevron,ioos:station:wmo:42372:2,2023-09-01T11:30:00Z,27.7790,-90.5190,10.5,30.4,11111222
Chevron,ioos:station:wmo:42372:2,2023-09-01T11:40:00Z,27.7790,-90.5190,10.5,30.4,11111222
Chevron,ioos:station:wmo:42372:2,2023-09-01T11:50:00Z,27.7790,-90.5190,10.6,30.4,11111222
Chevron,ioos:station:wmo:42372:2,2023-09-01T12:00:00Z,27.7790,-90.5190,10.5,30.4,11111222
Chevron,ioos:station:wmo:42372:2,2023-09-01T12:10:00Z,27.7790,-90.5190,10.6,30.4,11111222
Chevron,ioos:station:wmo:42372:2,2023-09-01T12:20:00Z,27.7790,-90.5190,10.6,30.4,11111222
Chevron,ioos:station:wmo:42372:2,2023-09-01T12:30:00Z,27.7790,-90.5190,10.8,30.4,11111222
Chevron,ioos:station:wmo:42372:2,2023-09-01T12:40:00Z,27.7790,-90.5190,10.6,30.4,11111222
Chevron,ioos:station:wmo:42372:2,2023-09-01T12:50:00Z,27.7790,-90.5190,10.5,30.3,11111222
Chevron,ioos:station:wmo:42372:2,2023-09-01T13:00:00Z,27.7790,-90.5190,10.7,30.3,11111222
Chevron,ioos:station:wmo:42372:2,2023-09-01T13:10:00Z,27.7790,-90.5190,10.7,30.3,11111222
Chevron,ioos:station:wmo:42372:2,2023-09-01T13:20:00Z,27.7790,-90.5190,10.6,30.3,11111222
Chevron,ioos:station:wmo:42372:2,2023-09-01T13:30:00Z,27.7790,-90.5190,10.7,30.3,11111222
Chevron,ioos:station:wmo:42372:2,2023-09-01T13:40:00Z,27.7790,-90.5190,10.7,30.3,11111222
Chevron,ioos:station:wmo:42372:2,2023-09-01T13:50:00Z,27.7790,-90.5190,10.7,30.4,11111222
Chevron,ioos:station:wmo:42372:2,2023-09-01T14:00:00Z,27.7790,-90.5190,10.7,30.3,11111222
Chevron,ioos:station:wmo:42372:2,2023-09-01T14:10:00Z,27.7790,-90.5190,10.7,30.3,11111222
Chevron,ioos:station:wmo:42372:2,2023-09-01T14:20:00Z,27.7790,-90.5190,10.8,30.3,11111222
Chevron,ioos:station:wmo:42372:2,2023-09-01T14:30:00Z,27.7790,-90.5190,10.6,30.2,11111222
Chevron,ioos:station:wmo:42372:2,2023-09-01T14:51:00Z,27.7790,-90.5190,10.7,30.3,11111222
Chevron,ioos:station:wmo:42372:2,2023-09-01T15:01:00Z,27.7790,-90.5190,10.7,30.3,11111222
Chevron,ioos:station:wmo:42372:2,2023-09-01T15:11:00Z,27.7790,-90.5190,10.8,30.2,11111222
Chevron,ioos:station:wmo:42372:2,2023-09-01T15:21:00Z,27.7790,-90.5190,10.7,30.2,11111222
Chevron,ioos:station:wmo:42372:2,2023-09-01T15:31:00Z,27.7790,-90.5190,10.8,30.3,11111222
Chevron,ioos:station:wmo:42372:2,2023-09-01T15:41:00Z,27.7790,-90.5190,10.8,30.3,11111222
Chevron,ioos:station:wmo:42372:2,2023-09-01T15:51:00Z,27.7790,-90.5190,10.7,30.3,11111222
Chevron,ioos:station:wmo:42372:2,2023-09-01T16:01:00Z,27.7790,-90.5190,10.8,30.3,11111222
Chevron,ioos:station:wmo:42372:2,2023-09-01T16:11:00Z,27.7790,-90.5190,10.8,30.3,11111222
Chevron,ioos:station:wmo:42372:2,2023-09-01T16:21:00Z,27.7790,-90.5190,10.8,30.3,11111222
Chevron,ioos:station:wmo:42372:2,2023-09-01T16:31:00Z,27.7790,-90.5190,10.8,30.4,11111222
Chevron,ioos:station:wmo:42372:2,2023-09-01T16:41:00Z,27.7790,-90.5190,10.8,30.3,11111222
Chevron,ioos:station:wmo:42372:2,2023-09-01T16:51:00Z,27.7790,-90.5190,10.9,30.3,11111222
Chevron,ioos:station:wmo:42372:2,2023-09-01T17:01:00Z,27.7790,-90.5190,10.9,30.2,11111222
Chevron,ioos:station:wmo:42372:2,2023-09-01T17:11:00Z,27.7790,-90.5190,10.9,30.2,11111222
Chevron,ioos:station:wmo:42372:2,2023-09-01T17:21:00Z,27.7790,-90.5190,10.8,30.3,11111222
Chevron,ioos:station:wmo:42372:2,2023-09-01T17:31:00Z,27.7790,-90.5190,11.0,30.3,11111222
Chevron,ioos:station:wmo:42372:2,2023-09-01T17:41:00Z,27.7790,-90.5190,10.8,30.3,11111222
Chevron,ioos:station:wmo:42372:2,2023-09-01T17:51:00Z,27.7790,-90.5190,10.9,30.2,11111222
Chevron,ioos:station:wmo:42372:2,2023-09-01T18:01:00Z,27.7790,-90.5190,10.9,30.2,11111222
Chevron,ioos:station:wmo:42372:2,2023-09-01T18:11:00Z,27.7790,-90.5190,11.0,30.2,11111222
Chevron,ioos:station:wmo:42372:2,2023-09-01T18:21:00Z,27.7790,-90.5190,10.9,30.3,11111222
Chevron,ioos:station:wmo:42372:2,2023-09-01T18:31:00Z,27.7790,-90.5190,10.9,30.3,11111222
Chevron,ioos:station:wmo:42372:2,2023-09-01T18:41:00Z,27.7790,-90.5190,10.8,30.3,11111222
Chevron,ioos:station:wmo:42372:2,2023-09-01T18:51:00Z,27.7790,-90.5190,10.7,30.3,11111222
Chevron,ioos:station:wmo:42372:2,2023-09-01T19:01:00Z,27.7790,-90.5190,10.9,30.2,11111222
Chevron,ioos:station:wmo:42372:2,2023-09-01T19:11:00Z,27.7790,-90.5190,10.9,30.3,11111222
Chevron,ioos:station:wmo:42372:2,2023-09-01T19:21:00Z,27.7790,-90.5190,10.9,30.3,11111222
Chevron,ioos:station:wmo:42372:2,2023-09-01T19:31:00Z,27.7790,-90.5190,11.0,30.3,11111222
Chevron,ioos:station:wmo:42372:2,2023-09-01T19:41:00Z,27.7790,-90.5190,11.0,30.3,11111222
Chevron,ioos:station:wmo:42372:2,2023-09-01T19:51:00Z,27.7790,-90.5190,10.9,30.3,11111222
Chevron,ioos:station:wmo:42372:2,2023-09-01T20:01:00Z,27.7790,-90.5190,11.0,30.2,11111222
Chevron,ioos:station:wmo:42372:2,2023-09-01T20:11:00Z,27.7790,-90.5190,10.9,30.2,11111222
Chevron,ioos:station:wmo:42372:2,2023-09-01T20:21:00Z,27.7790,-90.5190,10.9,30.1,11111222
Chevron,ioos:station:wmo:42372:2,2023-09-01T20:31:00Z,27.7790,-90.5190,10.8,30.2,11111222
Chevron,ioos:station:wmo:42372:2,2023-09-01T20:41:00Z,27.7790,-90.5190,10.9,30.2,11111222
Chevron,ioos:station:wmo:42372:2,2023-09-01T20:51:00Z,27.7790,-90.5190,10.9,30.3,11111222
Chevron,ioos:station:wmo:42372:2,2023-09-01T21:01:00Z,27.7790,-90.5190,11.0,30.1,11111222
Chevron,ioos:station:wmo:42372:2,2023-09-01T21:11:00Z,27.7790,-90.5190,10.9,30.2,11111222
Chevron,ioos:station:wmo:42372:2,2023-09-01T21:21:00Z,27.7790,-90.5190,10.9,30.2,11111222
Chevron,ioos:station:wmo:42372:2,2023-09-01T21:31:00Z,27.7790,-90.5190,10.9,30.2,11111222
Chevron,ioos:station:wmo:42372:2,2023-09-01T21:41:00Z,27.7790,-90.5190,10.9,30.2,11111222
Chevron,ioos:station:wmo:42372:2,2023-09-01T21:51:00Z,27.7790,-90.5190,10.9,30.2,11111222
Chevron,ioos:station:wmo:42372:2,2023-09-01T22:01:00Z,27.7790,-90.5190,11.0,30.3,11111222
Chevron,ioos:station:wmo:42372:2,2023-09-01T22:11:00Z,27.7790,-90.5190,10.8,30.3,11111222
Chevron,ioos:station:wmo:42372:2,2023-09-01T22:21:00Z,27.7790,-90.5190,10.8,30.3,11111222
Chevron,ioos:station:wmo:42372:2,2023-09-01T22:31:00Z,27.7790,-90.5190,10.8,30.3,11111222
Chevron,ioos:station:wmo:42372:2,2023-09-01T22:41:00Z,27.7790,-90.5190,10.9,30.3,11111222
Chevron,ioos:station:wmo:42372:2,2023-09-01T22:51:00Z,27.7790,-90.5190,10.7,30.3,11111222
Chevron,ioos:station:wmo:42372:2,2023-09-01T23:01:00Z,27.7790,-90.5190,10.8,30.3,11111222
Chevron,ioos:station:wmo:42372:2,2023-09-01T23:11:00Z,27.7790,-90.5190,10.8,30.2,11111222
Chevron,ioos:station:wmo:42372:2,2023-09-01T23:21:00Z,27.7790,-90.5190,10.8,30.3,11111222
Chevron,ioos:station:wmo:42372:2,2023-09-01T23:31:00Z,27.7790,-90.5190,10.8,30.3,11111222
Chevron,ioos:station:wmo:42372:2,2023-09-01T23:41:00Z,27.7790,-90.5190,10.8,30.3,11111222
Chevron,ioos:station:wmo:42372:2,2023-09-01T23:51:00Z,27.7790,-90.5190,10.7,30.4,11111222
Chevron,ioos:station:wmo:42372:2,2023-09-02T00:01:00Z,27.7790,-90.5190,10.8,30.3,11111222
Chevron,ioos:station:wmo:42372:2,2023-09-02T00:11:00Z,27.7790,-90.5190,10.8,30.4,11111222
Chevron,ioos:station:wmo:42372:2,2023-09-02T00:21:00Z,27.7790,-90.5190,10.8,30.3,11111222
Chevron,ioos:station:wmo:42372:2,2023-09-02T00:31:00Z,27.7790,-90.5190,10.8,30.4,11111222
Chevron,ioos:station:wmo:42372:2,2023-09-02T00:41:00Z,27.7790,-90.5190,10.8,30.3,11111222
Chevron,ioos:station:wmo:42372:2,2023-09-02T00:51:00Z,27.7790,-90.5190,10.7,30.3,11111222
Chevron,ioos:station:wmo:42372:2,2023-09-02T01:01:00Z,27.7790,-90.5190,10.7,30.4,11111222
Chevron,ioos:station:wmo:42372:2,2023-09-02T01:11:00Z,27.7790,-90.5190,10.7,30.4,11111222
Chevron,ioos:station:wmo:42372:2,2023-09-02T01:21:00Z,27.7790,-90.5190,10.7,30.4,11111222
Chevron,ioos:station:wmo:42372:2,2023-09-02T01:31:00Z,27.7790,-90.5190,10.6,30.3,11111222
Chevron,ioos:station:wmo:42372:2,2023-09-02T01:41:00Z,27.7790,-90.5190,10.7,30.3,11111222
Chevron,ioos:station:wmo:42372:2,2023-09-02T01:51:00Z,27.7790,-90.5190,10.7,30.4,11111222
Chevron,ioos:station:wmo:42372:2,2023-09-02T02:01:00Z,27.7790,-90.5190,10.7,30.4,11111222
Chevron,ioos:station:wmo:42372:2,2023-09-02T02:11:00Z,27.7790,-90.5190,10.7,30.4,11111222
Chevron,ioos:station:wmo:42372:2,2023-09-02T02:21:00Z,27.7790,-90.5190,10.5,30.5,11111222
Chevron,ioos:station:wmo:42372:2,2023-09-02T02:31:00Z,27.7790,-90.5190,10.7,30.5,11111222
Chevron,ioos:station:wmo:42372:2,2023-09-02T02:41:00Z,27.7790,-90.5190,10.7,30.5,11111222
Chevron,ioos:station:wmo:42372:2,2023-09-02T02:51:00Z,27.7790,-90.5190,10.7,30.4,11111222
Chevron,ioos:station:wmo:42372:2,2023-09-02T03:01:00Z,27.7790,-90.5190,10.7,30.4,11111222
Chevron,ioos:station:wmo:42372:2,2023-09-02T03:11:00Z,27.7790,-90.5190,10.8,30.4,11111222
Chevron,ioos:station:wmo:42372:2,2023-09-02T03:21:00Z,27.7790,-90.5190,10.7,30.4,11111222
Chevron,ioos:station:wmo:42372:2,2023-09-02T03:31:00Z,27.7790,-90.5190,10.7,30.4,11111222
Chevron,ioos:station:wmo:42372:2,2023-09-02T03:41:00Z,27.7790,-90.5190,10.7,30.5,11111222
Chevron,ioos:station:wmo:42372:2,2023-09-02T03:51:00Z,27.7790,-90.5190,10.8,30.4,11111222
Chevron,ioos:station:wmo:42372:2,2023-09-02T04:01:00Z,27.7790,-90.5190,10.7,30.4,11111222
Chevron,ioos:station:wmo:42372:2,2023-09-02T04:11:00Z,27.7790,-90.5190,10.8,30.5,11111222
Chevron,ioos:station:wmo:42372:2,2023-09-02T04:21:00Z,27.7790,-90.5190,10.7,30.6,11111222
Chevron,ioos:station:wmo:42372:2,2023-09-02T04:31:00Z,27.7790,-90.5190,10.7,30.5,11111222
Chevron,ioos:station:wmo:42372:2,2023-09-02T04:41:00Z,27.7790,-90.5190,10.8,30.6,11111222
Chevron,ioos:station:wmo:42372:2,2023-09-02T04:51:00Z,27.7790,-90.5190,10.7,30.5,11111222
Chevron,ioos:station:wmo:42372:2,2023-09-02T05:01:00Z,27.7790,-90.5190,10.8,30.6,11111222
Chevron,ioos:station:wmo:42372:2,2023-09-02T05:11:00Z,27.7790,-90.5190,10.7,30.6,11111222
Chevron,ioos:station:wmo:42372:2,2023-09-02T05:21:00Z,27.7790,-90.5190,10.7,30.6,11111222
Chevron,ioos:station:wmo:42372:2,2023-09-02T05:31:00Z,27.7790,-90.5190,10.7,30.6,11111222
Chevron,ioos:station:wmo:42372:2,2023-09-02T05:41:00Z,27.7790,-90.5190,10.8,30.5,11111222
Chevron,ioos:station:wmo:42372:2,2023-09-02T05:51:00Z,27.7790,-90.5190,10.8,30.6,11111222
Chevron,ioos:station:wmo:42372:2,2023-09-02T06:01:00Z,27.7790,-90.5190,10.8,30.6,11111222
Chevron,ioos:station:wmo:42372:2,2023-09-02T06:11:00Z,27.7790,-90.5190,10.7,30.6,11111222
Chevron,ioos:station:wmo:42372:2,2023-09-02T06:21:00Z,27.7790,-90.5190,10.8,30.5,11111222
Chevron,ioos:station:wmo:42372:2,2023-09-02T06:31:00Z,27.7790,-90.5190,10.8,30.6,11111222
Chevron,ioos:station:wmo:42372:2,2023-09-02T06:41:00Z,27.7790,-90.5190,10.8,30.6,11111222
Chevron,ioos:station:wmo:42372:2,2023-09-02T06:51:00Z,27.7790,-90.5190,10.7,30.7,11111222
Chevron,ioos:station:wmo:42372:2,2023-09-02T07:01:00Z,27.7790,-90.5190,10.7,30.7,11111222
Chevron,ioos:station:wmo:42372:2,2023-09-02T07:11:00Z,27.7790,-90.5190,10.8,30.7,11111222
Chevron,ioos:station:wmo:42372:2,2023-09-02T07:21:00Z,27.7790,-90.5190,10.8,30.7,11111222
Chevron,ioos:station:wmo:42372:2,2023-09-02T07:31:00Z,27.7790,-90.5190,10.8,30.7,11111222
Chevron,ioos:station:wmo:42372:2,2023-09-02T07:41:00Z,27.7790,-90.5190,10.7,30.8,11111222
Chevron,ioos:station:wmo:42372:2,2023-09-02T07:51:00Z,27.7790,-90.5190,10.8,30.7,11111222
Chevron,ioos:station:wmo:42372:2,2023-09-02T08:01:00Z,27.7790,-90.5190,10.7,30.7,11111222
Chevron,ioos:station:wmo:42372:2,2023-09-02T08:11:00Z,27.7790,-90.5190,10.8,30.8,11111222
Chevron,ioos:station:wmo:42372:2,2023-09-02T08:21:00Z,27.7790,-90.5190,10.7,30.8,11111222
Chevron,ioos:station:wmo:42372:2,2023-09-02T08:31:00Z,27.7790,-90.5190,10.8,30.9,11111222
Chevron,ioos:station:wmo:42372:2,2023-09-02T08:41:00Z,27.7790,-90.5190,10.8,30.9,11111222
Chevron,ioos:station:wmo:42372:2,2023-09-02T08:51:00Z,27.7790,-90.5190,10.8,30.8,11111222
Chevron,ioos:station:wmo:42372:2,2023-09-02T09:01:00Z,27.7790,-90.5190,10.8,30.8,11111222
Chevron,ioos:station:wmo:42372:2,2023-09-02T09:11:00Z,27.7790,-90.5190,10.9,30.8,11111222
Chevron,ioos:station:wmo:42372:2,2023-09-02T09:21:00Z,27.7790,-90.5190,10.7,30.7,11111222
Chevron,ioos:station:wmo:42372:2,2023-09-02T09:31:00Z,27.7790,-90.5190,10.7,30.7,11111222
Chevron,ioos:station:wmo:42372:2,2023-09-02T09:41:00Z,27.7790,-90.5190,10.9,30.7,11111222
Chevron,ioos:station:wmo:42372:2,2023-09-02T09:51:00Z,27.7790,-90.5190,10.8,30.7,11111222
Chevron,ioos:station:wmo:42372:2,2023-09-02T10:01:00Z,27.7790,-90.5190,10.8,30.7,11111222
Chevron,ioos:station:wmo:42372:2,2023-09-02T10:11:00Z,27.7790,-90.5190,10.8,30.7,11111222
Chevron,ioos:station:wmo:42372:2,2023-09-02T10:21:00Z,27.7790,-90.5190,10.9,30.8,11111222
Chevron,ioos:station:wmo:42372:2,2023-09-02T10:31:00Z,27.7790,-90.5190,10.7,30.8,11111222
Chevron,ioos:station:wmo:42372:2,2023-09-02T10:41:00Z,27.7790,-90.5190,10.7,30.8,11111222
Chevron,ioos:station:wmo:42372:2,2023-09-02T10:51:00Z,27.7790,-90.5190,10.6,30.9,11111222
Chevron,ioos:station:wmo:42372:2,2023-09-02T11:01:00Z,27.7790,-90.5190,10.7,30.8,11111222
Chevron,ioos:station:wmo:42372:2,2023-09-02T11:11:00Z,27.7790,-90.5190,10.7,30.8,11111222
Chevron,ioos:station:wmo:42372:2,2023-09-02T11:21:00Z,27.7790,-90.5190,10.7,30.8,11111222
Chevron,ioos:station:wmo:42372:2,2023-09-02T11:31:00Z,27.7790,-90.5190,10.6,30.9,11111222
Chevron,ioos:station:wmo:42372:2,2023-09-02T11:41:00Z,27.7790,-90.5190,10.8,30.8,11111222
Chevron,ioos:station:wmo:42372:2,2023-09-02T11:51:00Z,27.7790,-90.5190,10.6,30.8,11111222
Chevron,ioos:station:wmo:42372:2,2023-09-02T12:01:00Z,27.7790,-90.5190,10.6,30.7,11111222
Chevron,ioos:station:wmo:42372:2,2023-09-02T12:11:00Z,27.7790,-90.5190,10.7,30.8,11111222
Chevron,ioos:station:wmo:42372:2,2023-09-02T12:21:00Z,27.7790,-90.5190,10.7,30.9,11111222
Chevron,ioos:station:wmo:42372:2,2023-09-02T12:31:00Z,27.7790,-90.5190,10.7,30.8,11111222
Chevron,ioos:station:wmo:42372:2,2023-09-02T12:41:00Z,27.7790,-90.5190,10.6,30.9,11111222
Chevron,ioos:station:wmo:42372:2,2023-09-02T12:51:00Z,27.7790,-90.5190,10.6,30.8,11111222
Chevron,ioos:station:wmo:42372:2,2023-09-02T13:01:00Z,27.7790,-90.5190,10.7,30.8,11111222
Chevron,ioos:station:wmo:42372:2,2023-09-02T13:11:00Z,27.7790,-90.5190,10.6,30.7,11111222
Chevron,ioos:station:wmo:42372:2,2023-09-02T13:21:00Z,27.7790,-90.5190,10.7,30.7,11111222
Chevron,ioos:station:wmo:42372:2,2023-09-02T13:31:00Z,27.7790,-90.5190,10.7,30.7,11111222
Chevron,ioos:station:wmo:42372:2,2023-09-02T13:41:00Z,27.7790,-90.5190,10.6,30.7,11111222
Chevron,ioos:station:wmo:42372:2,2023-09-02T13:51:00Z,27.7790,-90.5190,10.6,30.8,11111222
Chevron,ioos:station:wmo:42372:2,2023-09-02T14:01:00Z,27.7790,-90.5190,10.7,30.8,11111222
Chevron,ioos:station:wmo:42372:2,2023-09-02T14:11:00Z,27.7790,-90.5190,10.5,30.8,11111222
Chevron,ioos:station:wmo:42372:2,2023-09-02T14:21:00Z,27.7790,-90.5190,10.6,30.9,11111222
Chevron,ioos:station:wmo:42372:2,2023-09-02T14:31:00Z,27.7790,-90.5190,10.5,30.8,11111222
Chevron,ioos:station:wmo:42372:2,2023-09-02T14:41:00Z,27.7790,-90.5190,10.6,30.8,11111222
Chevron,ioos:station:wmo:42372:2,2023-09-02T14:51:00Z,27.7790,-90.5190,10.7,30.8,11111222
Chevron,ioos:station:wmo:42372:2,2023-09-02T15:01:00Z,27.7790,-90.5190,10.6,30.6,11111222
Chevron,ioos:station:wmo:42372:2,2023-09-02T15:11:00Z,27.7790,-90.5190,10.7,30.6,11111222
Chevron,ioos:station:wmo:42372:2,2023-09-02T15:21:00Z,27.7790,-90.5190,10.7,30.6,11111222
Chevron,ioos:station:wmo:42372:2,2023-09-02T15:31:00Z,27.7790,-90.5190,10.7,30.6,11111222
Chevron,ioos:station:wmo:42372:2,2023-09-02T15:41:00Z,27.7790,-90.5190,10.7,30.6,11111222
Chevron,ioos:station:wmo:42372:2,2023-09-02T15:51:00Z,27.7790,-90.5190,10.7,30.5,11111222
Chevron,ioos:station:wmo:42372:2,2023-09-02T16:01:00Z,27.7790,-90.5190,10.8,30.6,11111222
Chevron,ioos:station:wmo:42372:2,2023-09-02T16:11:00Z,27.7790,-90.5190,10.6,30.6,11111222
Chevron,ioos:station:wmo:42372:2,2023-09-02T16:21:00Z,27.7790,-90.5190,10.6,30.5,11111222
Chevron,ioos:station:wmo:42372:2,2023-09-02T16:31:00Z,27.7790,-90.5190,10.6,30.6,11111222
Chevron,ioos:station:wmo:42372:2,2023-09-02T16:41:00Z,27.7790,-90.5190,10.7,30.5,11111222
Chevron,ioos:station:wmo:42372:2,2023-09-02T16:51:00Z,27.7790,-90.5190,10.9,30.4,11111222
Chevron,ioos:station:wmo:42372:2,2023-09-02T17:01:00Z,27.7790,-90.5190,10.8,30.5,11111222
Chevron,ioos:station:wmo:42372:2,2023-09-02T17:11:00Z,27.7790,-90.5190,10.8,30.6,11111222
Chevron,ioos:station:wmo:42372:2,2023-09-02T17:21:00Z,27.7790,-90.5190,10.9,30.4,11111222
Chevron,ioos:station:wmo:42372:2,2023-09-02T17:31:00Z,27.7790,-90.5190,10.8,30.5,11111222
Chevron,ioos:station:wmo:42372:2,2023-09-02T17:41:00Z,27.7790,-90.5190,10.7,30.5,11111222
Chevron,ioos:station:wmo:42372:2,2023-09-02T17:51:00Z,27.7790,-90.5190,10.9,30.4,11111222
Chevron,ioos:station:wmo:42372:2,2023-09-02T18:01:00Z,27.7790,-90.5190,10.7,30.5,11111222
Chevron,ioos:station:wmo:42372:2,2023-09-02T18:11:00Z,27.7790,-90.5190,10.9,30.4,11111222
Chevron,ioos:station:wmo:42372:2,2023-09-02T18:21:00Z,27.7790,-90.5190,10.8,30.4,11111222
Chevron,ioos:station:wmo:42372:2,2023-09-02T18:31:00Z,27.7790,-90.5190,10.9,30.4,11111222
Chevron,ioos:station:wmo:42372:2,2023-09-02T18:41:00Z,27.7790,-90.5190,10.6,30.4,11111222
Chevron,ioos:station:wmo:42372:2,2023-09-02T18:51:00Z,27.7790,-90.5190,10.9,30.4,11111222
Chevron,ioos:station:wmo:42372:2,2023-09-02T19:01:00Z,27.7790,-90.5190,10.8,30.4,11111222
Chevron,ioos:station:wmo:42372:2,2023-09-02T19:11:00Z,27.7790,-90.5190,10.9,30.4,11111222
Chevron,ioos:station:wmo:42372:2,2023-09-02T19:21:00Z,27.7790,-90.5190,10.8,30.4,11111222
Chevron,ioos:station:wmo:42372:2,2023-09-02T19:31:00Z,27.7790,-90.5190,10.9,30.4,11111222
Chevron,ioos:station:wmo:42372:2,2023-09-02T19:41:00Z,27.7790,-90.5190,10.9,30.4,11111222